This is the latest recevied weather packets stored in our database for station/object IW1CBG-23. If no packets are shown the sender has not sent any weather packets the latest 10 day(s).
| Time | Temp. | Humidity | Pressure | Rain* | Wind** | Luminosity | Snow |
|---|---|---|---|---|---|---|---|
| 1777511993 | 10.56° C | 99% | 1013.4 hPa | - | - | - | - |
| 1777510756 | 11.11° C | 99% | 1013.4 hPa | - | - | - | - |
| 1777509519 | 11.11° C | 99% | 1013.7 hPa | - | - | - | - |
| 1777508282 | 11.11° C | 99% | 1013.7 hPa | - | - | - | - |
| 1777507045 | 11.67° C | 99% | 1013.7 hPa | - | - | - | - |
| 1777505808 | 11.67° C | 99% | 1013.8 hPa | - | - | - | - |
| 1777504570 | 11.67° C | 99% | 1013.8 hPa | - | - | - | - |
| 1777503332 | 11.67° C | 99% | 1013.7 hPa | - | - | - | - |
| 1777502095 | 11.11° C | 99% | 1013.5 hPa | - | - | - | - |
| 1777500858 | 11.67° C | 99% | 1013.5 hPa | - | - | - | - |
| 1777499619 | 11.11° C | 99% | 1013.4 hPa | - | - | - | - |
| 1777498380 | 11.67° C | 99% | 1013.2 hPa | - | - | - | - |
| 1777497142 | 11.67° C | 99% | 1013 hPa | - | - | - | - |
| 1777495905 | 11.11° C | 99% | 1012.9 hPa | - | - | - | - |
| 1777494668 | 11.11° C | 99% | 1012.8 hPa | - | - | - | - |
| 1777493432 | 11.67° C | 99% | 1012.6 hPa | - | - | - | - |
| 1777492193 | 11.67° C | 99% | 1012.5 hPa | - | - | - | - |
| 1777490956 | 11.67° C | 99% | 1012.4 hPa | - | - | - | - |
| 1777488482 | 11.67° C | 99% | 1011.9 hPa | - | - | - | - |
| 1777487245 | 11.67° C | 99% | 1011.7 hPa | - | - | - | - |
| 1777486009 | 12.22° C | 99% | 1011.6 hPa | - | - | - | - |
| 1777484772 | 13.33° C | 99% | 1011.5 hPa | - | - | - | - |
| 1777483536 | 13.89° C | 92% | 1011.4 hPa | - | - | - | - |
| 1777479826 | 15° C | 69% | 1011.4 hPa | - | - | - | - |
| 1777478592 | 17.22° C | 65% | 1011.5 hPa | - | - | - | - |
* Rain since midnight (hover to see other rain measurements)
** Current wind speed in m/s (hover to see current wind gust speed)